"Pseudo-MPEC" for P10OSOi

Created 2019 Jun 20 19:07:18 UT using Find_Orb

Click here for an explanation of pseudo-MPECs

 
 Astrometry: 
     P10OSOi  C2019 06 092%SEAstrometryCKN]_akZ.FJw@_2j7qredacted;'.OSc\clickF51
     P10OSOi  C2019 06 09k[E#`y]JPt/8?Cemw+R/OCW+here/0nFUOk2ij4'ne!WWATW,G.lF51
     P10OSOi  C2019 06 09SqAPQR\a=*-rZx_#CM*k8,#I'WZgYhY2_U=7ayR$)_Q=76A4c%ZVF51
     P10OSOi  C2019 06 09e]Yln:ZM(m:BWYd01forh9J?1a/RPMW0)CGbi;IC_q]'sn:]$KL=F51
     P10OSOi ^C2019 06 13OENj/Z@\lPeiw'Xm^\6CSM$LAdECjr5EbDY)K3E:e'MX?/Hbbu@h695
     P10OSOi ^C2019 06 13p^R;[B1S2V;06x7;f60Qq]c6l1R.`rvV0)KkexplanationK6x]m695
     P10OSOi ^C2019 06 13:n]l_RXObcGEL]k76SwbP-s32^I=vp1D-#]_62y3Gqm=aFo#PVPc695

Station data:
(695) Kitt Peak  (N31.958398 W111.594670)  US/Arizona.
(F51) Pan-STARRS 1, Haleakala  (N20.707235 W156.255910)  US/Hawaii.
   Observers N. Primak, A. Schultz, S. Watters, J. Thiel, T. Goggia. Measurer
   PS1 Science Consortium. 1.8-m Ritchey-Chrétien + CCD.

Orbital elements:  P10OSOi
   Perihelion 2018 Nov 5.292938 +/- 263 TT =  7:01:49 (JD 2458427.792938)
Epoch 2019 Jun 13.0 TT = JDT 2458647.5   Earth MOID: 0.5930   Ma: 0.0503
M  88.15760094 +/- 90               (J2000 ecliptic)          AutoNEOCP
n   0.40125064 +/- 0.147            Peri.  338.82473 +/- 53
a   1.82050643 +/- 0.446            Node   179.27892 +/- 21
e   0.1327358 +/- 0.212             Incl.   21.30485 +/- 5.3
P   2.46/897.18d           H 20.1   G  0.15   U 11.5  SR
q 1.57885996 +/- 0.204    Q 2.06215289 +/- 4.93
From 7 observations 2019 June 9-13; mean residual 0".10
Residuals in arcseconds: 
190609 F51  .13-  .16+    190609 F51  .07+  .13-    190613 695  .04-  .15+    
190609 F51  .06-  .03+    190613 695  .00   .02+    
190609 F51  .12+  .06-    190613 695  .04+  .17-    

Ephemerides (geocentric):
Date (UTC) HH   RA              Dec         delta   r     elong  mag " sig PA
---- -- -- --  -------------   -----------  ------ ------ -----  --- ---- ---
2019 06 20 19  17 19 58.885   +19 52 42.13  .98823 1.8575 135.8 22.5  468 115
2019 06 20 20  17 19 56.266   +19 52 32.43  .98835 1.8575 135.8 22.5  472 115
2019 06 20 21  17 19 53.650   +19 52 22.69  .98848 1.8576 135.8 22.5  477 115
2019 06 20 22  17 19 51.035   +19 52 12.88  .98861 1.8577 135.8 22.5  481 115
2019 06 20 23  17 19 48.421   +19 52 03.01  .98874 1.8577 135.8 22.5  485 115
2019 06 21 00  17 19 45.809   +19 51 53.08  .98887 1.8578 135.8 22.5  490 115
2019 06 21 01  17 19 43.199   +19 51 43.10  .98900 1.8579 135.8 22.5  494 115
2019 06 21 02  17 19 40.591   +19 51 33.06  .98913 1.8579 135.8 22.5  499 115
2019 06 21 03  17 19 37.984   +19 51 22.95  .98925 1.8580 135.8 22.5  503 115
2019 06 21 04  17 19 35.378   +19 51 12.79  .98938 1.8581 135.8 22.5  508 115
2019 06 21 05  17 19 32.775   +19 51 02.57  .98951 1.8581 135.8 22.5  512 115
2019 06 21 06  17 19 30.173   +19 50 52.30  .98964 1.8582 135.8 22.5  517 115
2019 06 21 07  17 19 27.572   +19 50 41.96  .98977 1.8583 135.7 22.5  522 115
2019 06 21 08  17 19 24.974   +19 50 31.57  .98991 1.8584 135.7 22.5  526 115
2019 06 21 09  17 19 22.377   +19 50 21.11  0.9900 1.8584 135.7 22.5  531 115
2019 06 21 10  17 19 19.782   +19 50 10.60  0.9902 1.8585 135.7 22.5  535 115
2019 06 21 11  17 19 17.188   +19 50 00.03  0.9903 1.8586 135.7 22.5  540 115
2019 06 21 12  17 19 14.596   +19 49 49.41  0.9904 1.8586 135.7 22.5  545 115
2019 06 21 13  17 19 12.006   +19 49 38.72  0.9906 1.8587 135.7 22.5  549 115
2019 06 21 14  17 19 09.418   +19 49 27.98  0.9907 1.8588 135.7 22.5  554 115
2019 06 21 15  17 19 06.831   +19 49 17.17  0.9908 1.8588 135.7 22.5  559 115
2019 06 21 16  17 19 04.246   +19 49 06.31  0.9910 1.8589 135.7 22.5  564 115
2019 06 21 17  17 19 01.663   +19 48 55.39  0.9911 1.8590 135.7 22.5  568 115
2019 06 21 18  17 18 59.081   +19 48 44.42  0.9912 1.8590 135.7 22.5  573 115
2019 06 21 19  17 18 56.501   +19 48 33.38  0.9914 1.8591 135.6 22.5  578 115
2019 06 21 20  17 18 53.923   +19 48 22.29  0.9915 1.8592 135.6 22.5  583 115
2019 06 21 21  17 18 51.347   +19 48 11.14  0.9916 1.8592 135.6 22.5  588 115
2019 06 21 22  17 18 48.773   +19 47 59.93  0.9918 1.8593 135.6 22.5  593 115
2019 06 21 23  17 18 46.200   +19 47 48.66  0.9919 1.8594 135.6 22.5  597 114
2019 06 22 00  17 18 43.629   +19 47 37.34  0.9920 1.8594 135.6 22.5  602 114
2019 06 22 01  17 18 41.060   +19 47 25.96  0.9922 1.8595 135.6 22.5  607 114
2019 06 22 02  17 18 38.492   +19 47 14.52  0.9923 1.8596 135.6 22.5  612 114
2019 06 22 03  17 18 35.927   +19 47 03.02  0.9924 1.8596 135.6 22.5  617 114
2019 06 22 04  17 18 33.363   +19 46 51.46  0.9926 1.8597 135.6 22.5  622 114
2019 06 22 05  17 18 30.801   +19 46 39.85  0.9927 1.8598 135.6 22.5  627 114
2019 06 22 06  17 18 28.241   +19 46 28.18  0.9928 1.8599 135.5 22.5  632 114
2019 06 22 07  17 18 25.682   +19 46 16.45  0.9930 1.8599 135.5 22.5  637 114
2019 06 22 08  17 18 23.126   +19 46 04.66  0.9931 1.8600 135.5 22.5  642 114
2019 06 22 09  17 18 20.571   +19 45 52.82  0.9933 1.8601 135.5 22.5  647 114
2019 06 22 10  17 18 18.018   +19 45 40.92  0.9934 1.8601 135.5 22.5  653 114
2019 06 22 11  17 18 15.467   +19 45 28.96  0.9935 1.8602 135.5 22.5  658 114
2019 06 22 12  17 18 12.918   +19 45 16.94  0.9937 1.8603 135.5 22.5  663 114
2019 06 22 13  17 18 10.370   +19 45 04.87  0.9938 1.8603 135.5 22.5  668 114
2019 06 22 14  17 18 07.825   +19 44 52.74  0.9939 1.8604 135.5 22.5  673 114
2019 06 22 15  17 18 05.281   +19 44 40.55  0.9941 1.8605 135.5 22.5  678 114
2019 06 22 16  17 18 02.740   +19 44 28.31  0.9942 1.8605 135.5 22.5  684 114
2019 06 22 17  17 18 00.200   +19 44 16.00  0.9944 1.8606 135.4 22.5  689 114
2019 06 22 18  17 17 57.662   +19 44 03.64  0.9945 1.8607 135.4 22.5  694 114